Theta_e
287 288 287 288 286 285 285 285 284 283 285 284 281 281 284 284 279 276 282 284 283 285 287 289 289 287 286 285 284 283 284 283 283 283 282 282 282 282 283 283 283 284 284 284 284 285 285 285 285 286 287 287 287 286 286 285 284 284 285 285 285 285 285 285 285 286 287 287 287 287 287 286 286 286 285 285 285 285 286 286 287 287 288 287 287 287 286
283 284 285 286 284 283 283 283 283 284 283 282 283 282 283 282 281 283 283 283 283 285 287 287 284 285 285 284 284 284 283 283 283 283 282 282 282 282 282 283 283 284 284 284 284 285 285 285 285 285 286 286 286 285 285 285 284 284 284 284 284 284 284 284 285 286 286 286 286 286 286 286 286 286 285 285 285 285 285 286 286 286 286 287 287 287 287
280 283 284 284 283 282 279 281 281 281 281 281 281 281 282 282 281 282 281 281 280 286 283 282 282 282 284 284 280 282 282 283 283 283 282 282 282 282 282 283 283 284 284 284 284 284 284 285 285 285 286 286 286 285 285 284 284 284 284 283 284 284 283 284 284 285 285 285 285 285 286 286 286 285 285 285 285 285 285 285 285 286 286 286 286 286 286
276 280 280 281 281 279 278 277 278 279 279 277 279 279 282 280 278 281 281 279 279 283 282 282 281 280 280 279 280 280 281 282 283 283 283 282 282 282 282 283 283 284 284 284 284 284 284 285 285 285 285 286 285 284 285 284 283 283 283 283 283 283 283 283 283 283 283 283 283 283 284 285 285 285 284 284 284 284 284 284 285 285 285 285 286 286 286
273 278 280 278 276 275 272 274 277 279 280 281 282 283 284 283 282 278 276 277 283 281 283 281 281 280 279 280 280 280 281 281 282 283 283 283 282 282 282 282 283 283 284 284 284 284 284 285 285 285 286 285 284 284 284 283 283 282 282 282 282 282 282 282 282 283 282 282 281 281 283 284 284 284 283 283 283 283 283 284 284 284 285 285 285 285 285
273 277 275 275 272 266 269 280 283 282 279 280 278 278 280 282 283 280 282 281 280 280 279 279 278 278 278 279 281 282 281 281 282 283 284 284 283 283 283 283 283 284 284 284 285 285 285 285 285 285 286 285 285 284 284 283 282 281 281 281 281 281 281 281 281 282 281 280 280 280 282 283 283 282 282 281 282 282 282 283 283 284 284 284 284 285 285
272 274 271 271 265 267 277 281 283 282 281 281 280 280 282 282 280 279 280 280 280 280 280 279 279 280 281 282 281 282 283 284 283 283 283 284 283 282 282 283 283 284 284 284 285 285 284 284 285 285 285 285 284 283 283 282 281 280 280 280 280 280 280 280 280 280 280 279 278 279 280 282 281 280 280 280 280 280 280 281 282 283 283 283 284 284 284
273 272 270 264 265 274 275 279 281 283 282 281 280 278 281 280 281 282 281 282 281 281 281 281 281 281 281 282 283 283 283 284 283 282 283 284 283 282 282 282 283 283 283 283 284 284 285 285 284 284 284 284 283 282 282 281 280 280 279 279 279 279 279 279 279 279 279 277 277 277 278 280 280 279 278 278 277 278 278 279 281 283 283 283 283 283 284
269 271 270 269 274 273 275 276 279 279 278 279 277 273 278 281 281 282 281 282 281 281 281 282 282 282 282 280 281 284 284 284 285 284 284 285 284 284 284 284 283 284 284 284 284 285 284 284 283 283 283 283 282 281 281 280 280 279 279 278 278 278 278 278 278 278 278 276 276 276 277 278 278 277 276 275 276 276 276 278 279 280 281 282 282 283 283
276 268 268 268 268 264 270 277 280 281 280 281 280 278 274 279 276 278 279 279 279 280 281 281 282 282 278 276 278 283 284 284 285 286 286 286 286 285 284 284 285 285 285 285 284 284 283 282 282 282 282 281 280 279 279 279 279 278 278 277 277 277 277 278 278 277 277 275 275 275 276 276 275 275 274 274 274 275 275 276 277 279 280 281 281 282 282
273 270 267 266 265 267 276 275 278 278 278 279 280 276 271 276 274 274 276 277 279 280 280 280 281 277 273 274 277 282 283 283 284 284 285 286 285 285 284 284 283 284 284 283 283 282 281 281 281 281 280 279 278 277 278 278 277 277 276 277 277 277 277 277 277 276 275 275 274 274 274 274 273 272 272 272 273 274 274 276 276 278 279 280 280 281 282
271 270 268 266 271 269 274 275 277 278 280 281 278 267 268 274 276 278 277 277 278 279 280 280 279 276 273 274 278 282 282 283 283 283 283 284 285 284 284 284 284 283 282 281 281 280 280 280 281 280 279 278 277 276 276 277 276 275 276 276 277 277 277 276 276 275 274 273 273 273 273 272 272 271 271 271 272 272 273 274 274 275 276 278 278 279 280
270 271 269 271 271 277 279 279 281 280 281 278 268 265 273 277 278 279 279 279 279 279 279 279 277 279 280 280 281 283 283 283 283 283 283 283 284 283 283 282 282 281 280 280 279 279 279 279 279 278 277 276 275 275 276 275 274 275 276 276 276 275 275 274 274 273 273 272 272 272 271 270 270 270 270 270 270 271 271 272 272 273 274 275 276 277 279
269 270 268 268 272 278 280 282 281 280 276 267 268 275 277 278 278 279 279 278 279 279 279 279 279 280 281 282 283 283 283 283 283 283 283 283 283 283 282 281 280 279 278 278 278 278 278 278 278 277 276 274 274 274 274 273 274 275 275 275 274 273 273 272 272 271 271 271 271 270 270 269 268 268 269 269 269 269 270 270 270 271 272 273 275 276 278
271 270 267 266 262 274 277 278 277 280 272 275 278 278 280 280 279 279 278 279 279 280 279 280 280 280 281 281 282 282 282 282 282 282 282 282 281 280 279 279 279 277 276 276 276 276 277 277 276 276 275 272 272 272 272 272 274 274 273 273 272 272 271 270 270 269 269 269 268 268 268 268 267 267 267 267 267 268 268 268 269 270 271 273 274 276 277
267 267 265 265 273 277 280 278 274 278 279 281 281 280 278 281 281 280 279 280 280 280 279 279 279 280 280 280 281 281 281 281 282 282 281 279 279 278 278 277 277 276 275 275 274 275 275 274 274 274 273 271 271 270 270 272 272 272 271 271 270 269 269 268 268 268 268 267 267 267 267 267 266 266 266 266 266 267 267 268 268 269 271 273 274 276 277
271 269 273 276 278 278 280 280 280 281 282 282 282 281 280 279 280 281 279 279 280 280 280 279 279 279 280 280 280 280 280 280 279 278 277 276 276 276 275 275 275 274 273 272 271 271 272 272 272 271 271 269 269 268 269 271 270 269 269 268 267 267 266 266 266 266 266 266 266 266 266 266 265 265 265 265 265 266 266 267 268 268 270 272 273 275 276
278 279 278 280 279 280 280 281 281 281 281 282 282 281 279 280 281 281 279 280 280 280 280 278 278 278 279 279 279 279 278 277 276 276 275 275 275 275 274 273 273 271 270 270 269 268 269 269 269 269 269 268 266 266 268 268 267 267 266 265 264 264 264 264 264 264 264 264 264 265 265 265 264 264 264 264 264 265 265 266 267 268 269 271 273 274 275
273 268 278 278 278 280 280 280 282 283 282 281 281 280 280 280 281 280 280 279 279 279 278 277 277 278 278 276 276 275 275 275 274 274 273 273 273 273 271 271 270 268 268 267 266 266 265 266 266 266 265 265 264 264 264 265 264 264 263 262 261 262 262 262 262 262 262 262 263 263 263 263 264 264 264 264 264 264 265 265 266 267 269 270 272 273 274
272 272 276 278 280 280 281 280 280 280 281 282 282 282 281 281 280 279 278 277 277 277 277 276 275 275 275 273 273 273 273 273 273 272 272 271 271 270 270 269 268 266 265 264 264 263 263 263 263 263 262 262 262 262 262 262 261 261 260 260 260 260 260 260 261 261 261 261 261 261 262 262 262 262 263 263 263 263 264 265 265 266 267 269 270 271 273
275 277 278 278 279 279 280 280 281 281 281 281 281 281 280 278 277 276 275 275 275 274 274 273 273 272 272 272 271 271 271 271 271 271 270 269 268 268 267 266 265 264 263 262 261 261 261 261 261 261 261 261 261 261 260 260 260 259 259 259 259 258 259 259 259 260 260 260 260 260 260 261 261 262 262 262 262 263 264 265 266 266 267 268 269 271 272
271 272 275 278 272 272 277 280 281 281 282 281 280 279 276 276 275 274 273 272 272 272 272 271 271 269 270 270 270 269 269 269 269 268 267 267 266 265 265 264 263 262 261 260 259 259 259 260 260 260 259 260 260 260 260 260 259 258 258 258 258 258 258 259 259 259 259 260 260 260 260 260 260 260 264 267 265 263 263 267 270 272 272 269 270 271 272
271 277 278 279 279 278 279 280 281 280 278 278 278 278 277 273 272 271 271 271 270 270 270 270 269 269 269 268 268 267 267 267 267 266 265 264 263 263 262 261 260 259 259 259 259 258 259 259 259 259 259 259 259 259 260 260 259 258 258 258 258 258 258 258 259 259 259 259 259 259 259 260 260 260 260 262 267 269 269 270 271 272 274 275 276 277 275
279 280 280 281 279 277 279 281 279 276 274 276 277 274 272 271 270 269 269 269 269 269 269 268 268 267 266 266 266 265 265 265 264 264 263 263 262 261 261 260 259 258 258 258 258 258 259 259 258 258 258 258 258 259 259 259 259 258 258 258 257 258 258 258 258 259 259 259 259 259 259 259 259 259 259 259 261 266 269 269 270 271 272 272 273 274 275
277 281 281 281 281 281 280 276 273 272 270 272 274 272 270 269 268 268 267 267 268 267 266 266 266 266 265 264 264 263 263 262 262 262 261 260 260 259 258 258 257 257 257 258 258 258 258 258 257 257 257 258 258 259 259 259 259 258 258 257 257 257 258 258 258 259 259 258 259 259 258 259 259 259 259 259 259 259 262 266 268 269 269 270 271 272 273
281 281 282 282 279 278 275 273 271 269 269 269 269 268 268 267 266 266 266 266 266 266 265 265 264 264 264 262 262 261 260 260 260 260 259 258 258 257 257 257 257 258 258 258 257 257 257 257 257 257 257 257 258 258 258 258 258 257 257 257 257 257 257 258 258 258 258 258 258 259 259 259 259 259 259 259 259 259 258 259 261 264 267 269 270 271 273
282 282 280 277 277 278 276 275 275 269 268 268 267 267 265 264 263 264 264 264 264 264 263 263 262 261 260 260 259 259 258 259 258 258 258 257 256 257 257 257 257 257 257 257 257 257 257 257 257 257 257 257 258 258 258 258 257 257 257 257 257 258 258 258 258 258 258 258 258 258 259 258 259 259 259 259 259 259 258 258 258 259 260 263 268 271 270
279 276 277 276 276 277 274 269 267 267 266 265 265 264 263 262 262 261 260 262 262 262 262 261 260 258 258 259 258 257 257 256 256 256 256 256 256 257 257 257 257 257 257 256 256 257 257 257 257 256 256 257 258 258 257 257 257 256 257 257 257 257 258 258 258 258 258 258 258 258 258 258 258 259 259 259 259 259 259 259 259 259 260 261 263 266 270
273 270 268 270 269 267 266 266 266 265 264 263 263 262 260 259 259 260 261 261 261 260 260 260 259 258 257 257 257 256 255 255 255 255 255 256 256 257 257 257 257 257 256 257 257 257 257 257 256 256 256 257 258 258 257 257 257 257 257 257 257 257 257 258 258 258 258 258 258 258 259 259 259 258 259 259 259 259 259 259 260 260 261 262 263 266 270
268 265 265 265 265 265 265 265 265 264 263 262 261 260 260 259 259 260 260 260 260 258 259 258 257 256 256 255 255 255 254 254 255 255 255 256 256 256 256 256 256 257 257 257 257 257 257 256 256 256 256 258 258 258 257 257 257 257 256 257 257 257 257 258 258 258 258 258 258 259 259 259 259 259 259 259 260 260 260 260 260 261 261 263 265 264 263
263 261 262 263 262 263 265 265 263 263 261 260 260 259 259 259 258 259 259 259 258 257 257 256 255 255 255 254 254 254 254 254 254 254 254 255 255 256 256 257 256 256 256 256 256 256 256 256 256 257 258 258 258 258 257 257 257 257 257 258 258 258 259 259 260 259 259 259 259 259 259 259 259 259 259 259 260 260 260 260 261 261 261 261 262 263 264
261 259 260 261 262 261 261 261 261 262 261 259 257 257 257 256 255 255 255 254 255 255 255 254 253 254 254 254 254 254 254 254 254 254 254 255 255 256 258 258 257 257 256 256 256 256 256 257 257 258 258 258 258 258 258 257 257 257 257 258 258 258 259 260 259 259 259 259 259 259 259 259 259 259 259 259 259 259 260 260 260 261 262 262 262 263 265
261 261 262 260 258 258 259 261 261 260 259 258 258 257 256 256 255 255 254 255 254 254 254 254 254 254 253 253 253 253 253 253 253 253 254 255 256 257 258 258 257 256 256 256 256 257 257 257 258 258 258 258 258 258 258 258 258 258 258 258 258 259 259 260 260 260 260 259 259 259 259 259 259 259 259 260 260 261 261 261 261 262 263 264 264 265 267
267 268 266 263 263 264 264 262 259 257 257 257 256 256 255 255 254 254 254 253 253 253 253 253 254 253 253 253 252 252 252 252 253 254 255 255 256 257 257 257 256 256 256 256 257 259 259 258 258 258 258 258 258 258 258 258 258 258 258 258 259 259 259 260 260 260 260 259 260 260 260 260 260 260 260 260 261 261 261 261 262 262 262 263 264 266 269
257 257 257 257 256 256 256 257 256 256 255 254 254 253 253 253 252 252 253 252 252 253 254 254 253 253 252 252 252 252 252 252 253 254 255 256 257 257 257 256 255 255 255 257 258 259 258 257 257 257 258 258 258 257 257 257 257 258 258 258 259 260 260 260 260 260 260 260 261 260 260 260 260 260 261 260 260 261 261 261 262 263 263 264 265 266 268
255 254 253 253 252 252 252 252 252 252 252 252 251 252 252 252 252 252 252 252 254 254 254 253 253 252 251 251 251 252 252 253 253 254 256 256 256 256 255 254 254 254 255 256 258 257 257 257 258 258 257 257 257 257 257 257 258 258 259 259 259 260 260 260 261 261 262 262 262 261 261 261 261 261 261 261 261 261 261 262 262 263 264 265 266 267 269
253 253 252 253 252 252 251 251 251 251 251 251 252 251 251 251 251 252 252 252 253 253 253 252 251 250 250 251 252 252 253 254 255 256 256 256 256 255 254 254 254 254 255 255 256 256 256 257 257 257 257 257 257 256 257 258 258 258 259 259 259 259 260 260 261 261 261 262 262 263 263 262 262 262 262 262 262 262 263 263 264 264 265 266 269 269 270
253 253 252 252 251 250 251 251 250 249 249 249 249 250 250 250 251 251 251 251 251 252 252 252 251 251 251 252 252 252 253 254 254 255 255 255 255 254 253 254 254 255 255 255 256 256 257 257 257 256 256 256 256 256 257 258 258 258 258 258 259 259 259 260 260 261 261 261 262 262 263 263 263 263 263 263 263 264 264 265 265 266 267 267 266 265 265
253 253 252 252 251 251 250 250 249 248 248 248 249 249 250 250 250 250 250 250 251 251 251 251 251 251 251 250 251 252 252 254 255 255 254 254 254 253 253 254 254 255 255 256 256 256 257 257 256 255 256 256 256 256 257 258 258 258 258 258 258 259 259 259 259 260 260 261 261 261 262 262 262 262 263 263 263 263 263 263 263 263 263 263 263 263 263
252 252 251 250 250 250 250 251 250 249 249 249 249 249 250 250 250 250 250 250 251 251 251 251 250 249 250 250 250 251 253 254 255 254 254 254 254 253 254 255 254 255 255 256 256 256 256 256 255 255 255 256 256 257 257 257 257 257 257 257 257 258 258 259 259 259 259 260 260 260 260 261 261 261 261 261 262 262 262 262 261 261 261 261 261 261 261
251 251 251 251 251 251 250 250 251 251 250 249 249 249 250 250 251 250 249 249 249 249 248 249 249 249 250 250 251 252 253 255 255 254 254 254 253 254 254 254 257 256 255 256 256 256 256 255 255 255 255 256 256 257 256 257 256 256 256 256 257 257 257 258 258 258 258 258 259 259 259 259 260 260 260 260 260 260 261 261 261 261 260 260 260 260 260
251 251 251 251 250 250 250 250 250 250 250 249 250 250 250 250 250 249 249 249 249 249 248 249 250 250 250 251 252 253 254 254 254 254 254 253 253 253 253 255 257 255 256 256 256 256 255 254 254 255 255 256 256 256 256 256 255 255 256 256 256 256 256 257 257 257 258 258 258 258 259 259 259 259 259 259 259 259 260 260 260 260 260 260 259 259 259
249 248 248 249 249 249 248 249 249 249 249 250 250 249 249 249 248 248 248 248 248 248 248 248 249 251 252 252 253 253 254 254 254 254 254 254 254 254 254 255 255 255 255 256 255 255 255 254 254 255 256 256 255 256 256 255 255 255 255 255 255 256 256 256 256 256 257 257 257 257 257 258 258 258 258 258 258 259 259 258 258 258 259 258 258 258 258
248 248 248 248 249 250 250 250 250 249 248 249 250 249 248 248 248 247 247 248 248 249 249 248 249 250 252 253 253 254 255 255 255 255 254 254 255 255 253 255 255 255 255 255 255 255 254 254 255 255 255 255 255 255 254 254 255 254 254 254 254 255 255 255 255 255 256 256 256 256 256 257 257 257 257 257 257 257 258 258 258 258 258 258 258 258 258
249 249 249 248 248 248 248 249 248 249 249 250 249 248 247 247 247 247 247 247 247 248 250 251 252 253 254 255 255 255 255 255 255 254 253 253 253 256 256 255 255 255 255 255 255 254 254 254 255 255 255 255 254 254 254 254 254 254 254 253 254 254 254 254 254 255 255 255 255 256 256 256 256 256 256 257 257 257 257 257 257 257 257 257 257 257 257
248 249 248 248 247 247 248 248 249 248 247 246 245 246 247 247 247 247 247 247 247 249 250 252 253 255 256 256 256 256 255 255 255 255 254 254 254 255 255 255 254 255 255 255 254 254 254 254 254 254 254 254 254 254 254 254 254 254 253 253 253 253 253 254 254 254 254 255 255 255 255 255 256 256 256 256 256 256 256 257 257 257 257 257 257 256 256
247 246 246 245 246 246 246 245 244 245 244 244 244 246 249 248 248 249 250 250 250 250 252 253 255 256 257 256 256 255 254 254 255 256 255 254 254 254 254 254 254 254 254 254 254 253 253 253 253 254 254 253 253 253 253 253 253 253 253 253 253 253 253 253 253 253 253 254 254 254 255 255 255 255 255 255 255 256 256 256 256 256 257 257 257 257 256
244 245 245 244 244 245 244 243 241 242 242 244 246 247 248 249 249 249 250 251 252 253 255 256 256 256 256 256 256 255 255 254 252 255 255 254 255 254 254 254 254 254 254 254 253 253 253 253 253 253 253 253 253 253 253 253 253 253 253 253 253 252 253 253 253 253 253 253 253 253 253 253 254 254 255 254 254 254 255 255 255 256 256 256 256 255 255
243 243 244 244 243 243 243 244 244 246 248 248 246 248 249 249 250 251 252 253 253 254 255 256 256 256 256 256 256 256 256 255 254 254 255 255 254 254 255 254 253 253 253 253 252 252 253 252 252 252 252 252 253 253 253 253 253 253 253 252 252 253 252 252 252 252 252 252 252 252 252 252 252 253 253 253 254 254 254 254 254 254 254 255 255 255 254
244 243 244 247 246 247 246 247 248 249 250 250 250 251 252 252 253 254 256 256 256 256 256 256 256 257 257 257 257 256 256 255 255 255 254 254 254 254 254 254 253 253 253 253 252 252 252 252 252 252 252 253 253 253 253 253 253 253 252 252 252 252 252 252 252 252 252 252 252 252 252 252 252 251 252 252 253 253 253 253 253 253 253 253 253 253 253
246 247 247 248 248 248 246 247 249 250 251 251 252 253 255 255 255 256 256 256 256 255 255 256 256 257 257 256 256 256 255 255 254 254 254 254 254 254 253 253 253 253 252 252 252 252 253 253 252 252 252 252 252 252 253 252 252 252 252 252 252 252 252 252 252 251 251 251 251 251 251 251 251 251 251 251 251 252 252 252 252 252 253 253 253 253 252
245 245 247 248 248 248 249 249 249 250 252 254 255 256 256 256 256 256 256 256 256 255 255 255 255 256 256 256 256 255 255 255 254 254 254 254 254 254 253 253 253 253 252 252 252 252 252 252 252 251 251 252 252 252 252 252 252 252 252 252 251 252 251 251 251 251 251 251 251 251 250 250 250 250 251 251 251 251 251 251 251 252 252 252 252 252 253
Wind_Speed
14 15 16 12 11 9 11 15 15 16 15 14 16 15 15 15 14 17 15 20 19 17 19 19 8 1 0 3 2 2 0 1 2 2 3 4 4 4 4 5 4 5 5 5 6 6 6 7 8 8 8 8 8 8 7 7 7 8 8 8 8 7 7 8 8 8 8 7 7 8 9 9 10 11 11 10 9 8 9 9 8 9 10 10 10 10 10
8 12 11 11 11 10 11 13 13 12 14 18 18 19 16 15 17 18 20 22 26 23 19 1 4 3 4 3 2 1 2 4 3 4 4 4 5 4 5 6 6 5 6 6 6 7 7 7 8 8 8 8 8 9 9 9 10 9 9 9 9 9 8 8 8 8 8 7 7 8 8 9 9 10 10 11 11 11 11 10 9 8 8 9 9 10 11
8 10 11 8 6 9 11 10 10 13 15 17 16 17 18 17 19 21 22 23 22 5 7 6 5 4 3 2 1 2 4 4 5 6 6 5 5 6 6 6 7 7 7 7 7 7 8 8 8 7 7 7 7 8 8 8 8 9 9 10 10 10 10 10 9 9 8 8 9 9 7 7 6 7 10 9 9 9 9 9 11 9 9 9 9 9 10
7 4 9 10 6 8 11 11 15 19 18 16 13 14 12 14 15 17 18 15 14 1 3 6 4 3 1 2 3 4 4 4 6 7 8 7 7 7 8 7 7 7 8 8 8 9 9 9 9 8 8 7 8 8 8 8 8 8 9 9 10 10 10 11 11 11 10 10 10 10 9 7 6 6 6 7 8 9 9 10 10 9 10 9 9 9 9
8 7 7 6 3 8 12 14 19 18 16 17 18 17 16 18 18 14 12 13 2 3 3 3 2 1 3 4 5 5 6 6 7 8 9 9 8 8 8 8 8 8 8 8 9 10 9 9 9 9 8 8 8 8 8 8 8 8 9 9 10 10 10 11 11 10 10 10 10 11 11 10 9 8 8 8 8 8 10 10 10 10 11 11 11 10 9
5 12 5 1 3 13 15 1 3 9 14 11 15 14 15 11 5 4 3 1 3 4 4 2 1 3 5 5 6 5 6 6 7 10 10 10 9 8 7 7 8 8 8 8 8 9 10 11 10 10 8 8 9 8 7 8 8 9 9 10 10 10 10 10 10 10 10 9 10 10 11 11 10 10 10 10 10 9 10 10 10 10 10 11 11 11 10
7 1 4 8 14 15 3 3 2 1 2 4 12 15 15 5 1 2 4 5 5 4 1 2 4 5 6 7 8 8 7 8 8 10 10 9 9 9 8 8 9 8 9 9 9 9 9 9 9 9 9 8 9 8 8 8 7 8 9 10 10 10 10 11 10 8 8 8 10 11 11 11 10 11 11 11 11 10 10 11 11 10 10 10 10 10 10
2 3 7 10 9 2 5 7 3 2 3 9 10 13 13 6 8 8 7 6 5 6 5 5 6 6 7 6 8 9 10 8 9 11 10 11 9 9 8 9 9 9 10 11 11 11 9 8 8 8 9 9 8 10 8 8 8 7 8 9 11 10 9 9 9 9 8 9 9 10 11 11 11 11 11 10 11 11 11 11 10 10 10 10 11 12 11
9 7 11 17 7 13 12 11 6 5 6 4 5 7 3 7 5 7 6 6 7 5 6 6 5 2 2 5 9 10 9 9 11 13 14 13 12 10 10 10 11 10 10 11 11 10 9 10 10 10 9 8 9 9 8 7 7 8 8 9 10 11 10 11 10 9 8 8 10 11 11 12 11 11 11 13 12 9 11 11 12 11 10 11 11 12 12
8 6 9 8 7 8 2 1 0 0 1 2 2 2 5 5 2 2 3 3 3 4 5 5 2 3 3 7 8 6 6 7 10 11 12 13 12 11 11 12 11 11 10 9 9 9 11 12 11 9 8 8 9 9 9 9 8 10 10 12 12 11 12 11 11 9 8 8 9 11 11 11 11 11 11 11 12 10 11 12 12 12 12 12 12 11 12
6 7 9 10 9 6 3 4 3 2 2 0 2 0 7 2 7 3 4 3 4 5 5 5 2 2 6 8 8 8 6 5 7 9 10 12 13 12 11 12 12 11 10 8 9 9 10 12 12 10 9 8 8 9 10 10 10 11 11 12 12 11 13 12 11 9 8 8 10 12 12 11 10 11 12 12 12 11 11 11 13 12 12 12 13 12 11
10 10 10 11 5 5 1 4 1 2 3 4 1 11 7 3 7 6 4 6 6 6 7 6 4 6 9 9 9 9 10 8 7 10 13 13 14 13 11 10 8 8 8 9 10 10 11 12 11 11 8 8 10 11 11 10 11 11 11 12 12 12 13 12 10 9 8 9 11 11 11 11 10 11 12 12 12 12 12 12 12 13 12 12 14 13 12
11 13 10 7 8 6 5 8 6 7 3 2 5 14 1 6 7 7 7 6 8 9 9 7 6 9 11 12 13 13 13 10 8 9 11 13 13 13 11 8 8 8 8 9 10 12 12 12 11 9 7 8 11 12 12 12 13 12 12 12 12 13 12 11 10 10 10 10 12 11 9 11 12 12 11 12 13 13 13 13 13 13 15 14 15 15 14
10 11 12 11 10 4 4 4 4 7 4 4 12 1 4 3 6 7 8 7 10 9 10 9 9 11 12 13 12 12 12 13 13 13 13 14 13 9 6 6 6 7 10 11 13 13 13 12 10 7 6 9 11 12 12 14 15 14 14 13 13 11 12 12 11 10 11 10 10 10 11 10 12 13 12 12 13 13 12 13 15 16 16 14 14 14 13
3 4 7 8 9 0 3 4 5 5 4 5 2 2 4 6 5 4 6 9 9 8 9 10 11 12 12 12 13 13 13 12 13 14 14 11 9 9 9 10 8 7 10 13 14 15 13 12 10 9 9 12 12 12 14 17 15 15 14 13 13 12 12 12 13 14 13 11 11 9 10 10 12 15 14 13 13 13 14 15 16 18 17 16 14 14 13
5 7 7 6 3 3 4 6 4 4 7 3 4 4 11 10 5 3 4 5 6 7 8 9 10 10 11 12 12 12 12 13 12 9 8 7 8 9 10 9 9 8 11 12 14 14 14 12 10 9 10 13 12 15 18 17 15 14 13 12 12 12 13 14 17 15 14 15 14 11 11 12 12 14 15 14 13 13 13 14 14 15 14 14 13 13 13
5 6 5 1 1 1 4 5 6 7 8 8 9 7 8 8 7 3 4 8 8 7 7 9 10 10 10 12 12 12 12 10 9 8 9 9 10 10 11 12 10 8 10 13 15 16 16 14 12 11 11 13 16 18 17 15 16 15 15 14 14 15 16 16 16 15 16 14 12 11 11 12 15 15 16 14 15 14 13 14 15 15 15 14 14 13 13
6 8 9 4 7 10 9 8 8 11 12 11 8 7 7 6 7 6 7 8 9 9 5 6 8 9 10 10 10 9 9 9 9 8 9 10 10 10 9 9 9 10 12 13 14 16 18 15 13 12 12 11 15 18 17 16 16 16 17 18 18 17 18 16 17 18 19 18 17 16 16 16 16 16 18 16 16 15 13 14 15 15 15 14 14 14 14
6 8 9 10 14 12 11 13 9 8 8 9 8 7 8 8 8 6 5 6 8 6 4 5 8 9 6 6 8 8 9 9 9 9 10 11 10 10 10 11 11 11 12 13 15 17 19 17 12 12 14 14 14 15 16 17 16 16 17 17 19 19 19 18 18 18 18 16 16 17 17 16 16 15 15 14 15 15 14 14 15 15 15 15 15 14 14
11 14 18 16 12 13 14 12 11 12 11 10 9 7 6 7 5 2 1 1 3 1 3 2 4 6 3 5 8 8 8 8 8 8 9 10 11 11 10 10 10 11 11 13 15 17 17 17 15 14 13 14 15 14 15 16 17 18 19 19 19 19 20 18 17 17 17 20 20 16 16 14 15 14 13 13 14 16 15 14 14 15 15 15 15 15 14
11 15 18 18 16 17 16 14 11 10 11 11 12 8 4 3 3 2 2 2 1 0 2 1 3 5 5 4 7 9 9 8 7 8 9 10 10 11 12 11 10 10 12 14 16 16 17 15 15 14 15 15 14 17 18 17 16 18 19 21 20 20 19 17 17 16 15 15 15 15 16 15 15 15 14 14 15 17 18 15 15 15 15 16 17 16 15
11 12 14 10 7 10 12 12 11 11 9 8 8 3 3 4 3 2 2 2 1 1 1 1 2 4 5 5 6 8 8 8 9 10 10 10 11 11 10 10 11 12 11 12 15 17 17 15 15 17 17 17 17 16 15 15 14 17 20 19 20 19 17 17 16 16 16 15 15 16 16 16 16 17 21 25 22 18 18 23 30 32 27 20 18 15 15
13 15 15 12 12 15 16 15 1 3 3 4 6 7 5 4 2 1 1 1 2 2 2 1 3 4 5 6 7 9 8 8 8 9 10 11 12 12 12 12 13 12 13 14 15 17 16 15 15 16 17 16 15 15 14 15 16 15 17 18 18 18 17 16 17 17 17 17 17 15 16 16 17 17 17 16 24 31 33 32 31 31 31 33 33 31 22
18 17 15 11 8 11 13 10 1 4 2 4 5 2 3 3 3 2 1 1 2 2 3 3 2 3 5 6 7 9 9 8 9 10 9 10 10 12 11 10 13 15 16 15 15 17 16 15 15 15 15 15 14 13 13 15 13 14 16 17 18 17 17 17 18 18 17 17 17 17 17 16 16 17 17 18 18 20 23 22 25 29 31 32 33 31 32
16 17 15 13 11 11 4 2 2 3 2 1 3 4 4 4 3 2 1 2 2 2 3 3 2 2 4 6 6 8 10 10 9 11 12 10 10 10 11 12 13 14 14 14 14 15 16 15 15 14 13 14 13 14 15 14 15 16 17 17 18 18 17 18 18 18 17 17 17 16 16 17 16 16 16 17 18 17 16 23 28 29 31 34 36 36 36
16 16 15 12 4 4 3 2 2 4 4 4 3 4 4 3 3 1 1 2 2 1 2 2 3 3 4 5 6 8 9 9 10 11 10 9 9 10 11 12 13 13 14 14 15 15 15 16 14 15 16 18 16 15 15 15 15 16 16 16 17 16 16 17 18 17 16 17 17 17 16 16 16 17 17 17 19 18 18 16 14 18 23 27 29 32 33
13 13 10 10 11 11 8 9 4 7 6 4 4 5 4 3 2 1 1 1 2 1 1 2 4 3 4 5 6 7 9 11 10 9 9 11 12 11 11 11 13 15 16 15 15 14 15 15 15 16 15 16 15 15 14 15 15 15 16 18 17 19 26 21 16 16 16 16 16 16 16 16 16 16 17 17 17 18 17 17 16 16 14 15 19 25 23
9 4 7 14 13 10 2 5 7 7 5 5 5 4 3 1 1 1 1 2 2 1 1 2 1 3 5 4 6 8 8 9 10 11 11 12 10 11 11 12 14 15 14 13 13 14 14 14 15 17 17 15 14 14 14 15 16 16 17 17 16 15 15 17 16 15 15 15 15 15 15 15 15 16 16 16 16 15 15 16 15 15 15 14 15 19 32
6 3 0 2 4 5 6 6 6 6 6 5 4 3 2 2 0 1 2 1 1 1 3 2 1 3 4 5 5 7 8 9 11 13 12 12 11 11 11 12 13 13 12 13 13 11 13 14 17 18 18 15 14 14 14 14 14 15 15 15 15 15 15 15 15 15 15 16 16 16 17 17 16 15 15 16 16 15 15 15 15 15 14 14 14 14 17
4 2 2 2 3 4 6 5 5 5 5 5 3 2 2 3 1 2 2 2 1 3 2 3 4 5 5 6 5 6 10 12 12 12 12 12 12 11 10 11 12 12 12 11 12 13 14 17 17 17 16 12 12 14 15 14 14 16 16 15 15 15 15 15 15 15 14 15 15 19 17 15 14 14 14 14 15 15 15 14 15 14 14 13 12 12 13
5 4 3 3 3 2 4 4 4 4 5 3 2 1 2 1 2 2 2 2 3 3 4 5 6 7 6 6 7 8 9 10 11 12 12 11 11 10 10 10 10 13 14 15 15 14 16 16 14 14 13 13 14 15 14 14 15 15 15 14 13 19 23 25 21 16 15 15 15 15 14 14 14 14 14 14 14 14 13 13 13 13 13 14 15 14 13
7 4 4 2 2 2 2 2 4 4 4 3 1 2 2 1 1 2 3 3 3 4 6 6 6 6 6 6 7 9 9 9 10 11 11 10 9 9 8 8 10 12 14 15 15 15 14 14 15 16 15 15 15 15 14 14 15 14 14 14 15 14 16 22 16 16 14 14 14 14 14 13 13 13 13 13 13 13 13 13 13 13 12 12 12 12 12
5 1 3 4 2 3 5 4 5 5 5 4 3 1 1 2 3 3 4 4 5 5 6 7 7 7 6 7 8 8 8 9 10 10 8 9 10 10 8 11 12 12 13 12 13 14 12 13 15 15 15 16 15 15 14 14 14 13 13 13 13 15 15 17 17 15 14 14 14 14 13 13 13 12 12 13 13 13 13 13 12 12 12 12 12 12 12
8 7 2 1 4 6 8 8 4 2 2 2 2 2 2 3 3 4 4 4 5 8 7 7 7 6 6 8 8 8 8 8 8 8 9 10 10 10 11 11 12 13 12 13 13 10 10 13 14 14 16 16 15 14 14 14 14 14 14 14 14 14 14 14 15 12 12 12 13 14 14 13 13 12 12 12 12 11 13 13 13 13 13 12 12 12 16
5 5 5 4 5 4 4 3 3 2 2 3 3 3 3 3 3 4 4 5 6 7 7 8 7 7 7 7 8 8 7 7 9 10 10 10 10 12 12 12 11 11 11 11 9 7 10 13 13 14 16 17 15 14 13 15 15 14 15 15 15 14 13 13 13 13 13 13 12 12 11 11 11 11 12 12 11 11 11 12 11 12 11 11 11 10 13
4 5 5 4 4 4 3 2 2 2 3 5 6 4 5 4 4 4 5 6 7 7 8 8 8 6 7 7 8 7 7 8 8 10 10 10 11 11 11 12 12 11 12 13 7 8 12 10 14 22 17 14 15 14 14 15 15 15 15 15 13 13 13 13 13 12 12 12 12 11 10 12 12 11 10 10 10 10 11 11 11 11 11 11 11 10 9
4 4 4 3 1 1 1 1 2 3 4 4 4 5 6 6 6 6 5 6 7 8 8 7 6 6 7 8 8 8 8 8 8 9 10 10 11 12 11 11 9 10 12 11 11 13 12 10 20 26 16 12 13 14 16 23 15 15 14 13 12 12 12 12 11 11 11 11 11 11 11 9 8 9 9 9 9 9 9 10 10 10 10 11 10 9 6
2 3 1 1 1 1 3 3 3 2 3 5 6 6 6 7 6 6 6 6 6 7 7 7 7 7 7 8 8 8 8 9 9 9 9 10 8 10 11 8 8 8 9 9 13 13 11 15 22 17 13 12 12 13 16 23 24 16 12 12 12 12 12 11 11 11 11 11 12 10 10 9 9 9 8 9 9 9 9 9 9 8 7 5 5 5 4
2 2 2 1 1 1 3 4 2 3 5 7 8 7 6 6 6 5 6 6 7 6 6 6 6 7 8 7 7 7 8 8 8 9 10 12 9 8 9 9 9 7 8 10 11 11 11 13 14 13 11 11 14 14 16 20 23 13 12 11 12 11 11 11 11 11 11 11 10 11 10 10 9 10 9 8 7 7 6 7 7 6 6 6 6 6 6
1 1 1 1 3 4 3 5 4 6 6 6 6 8 6 5 5 6 6 7 7 6 6 6 6 6 7 7 7 8 8 8 8 9 10 11 10 10 8 7 5 4 8 12 10 8 12 17 13 10 11 11 12 12 13 18 18 12 11 11 11 11 10 11 10 10 10 10 11 12 10 10 9 9 9 9 8 8 7 7 7 7 7 7 7 7 7
1 2 2 4 4 4 4 5 6 5 4 5 5 6 6 6 6 6 8 8 8 6 7 6 6 7 8 8 9 10 9 9 8 9 9 8 8 5 5 8 6 7 8 9 8 9 11 10 9 10 10 12 11 14 14 17 13 10 10 10 10 10 10 10 10 10 10 11 11 10 10 10 10 9 9 9 9 8 9 8 8 8 7 7 7 7 7
2 2 3 4 4 5 5 5 4 5 5 5 6 6 7 6 6 8 8 7 7 8 8 8 8 9 9 9 9 9 8 8 8 7 7 6 7 5 7 8 7 6 12 13 9 8 7 7 9 8 10 12 12 19 21 13 10 10 10 10 10 10 10 10 10 10 10 9 9 9 9 9 9 9 9 9 9 9 9 9 8 8 8 8 7 7 7
3 3 5 5 5 4 4 4 4 6 5 6 5 6 7 6 6 7 7 8 8 8 8 8 8 9 8 8 8 8 8 6 6 7 7 6 8 8 8 8 8 7 13 9 8 6 7 7 8 7 16 15 13 21 18 10 9 9 9 10 10 9 9 9 9 9 9 9 9 9 9 9 9 9 9 9 9 9 8 8 8 8 8 8 8 8 8
3 4 4 5 5 4 3 4 4 5 6 7 5 5 6 7 7 8 8 8 8 8 7 7 7 7 8 8 6 6 6 6 6 6 6 6 6 4 6 5 8 9 11 9 7 7 6 7 6 14 18 19 20 19 11 8 10 9 9 9 9 9 9 9 9 9 9 9 9 9 10 10 9 9 9 9 8 8 8 8 8 8 8 8 8 8 8
4 4 4 5 5 4 3 3 5 6 6 5 6 8 9 9 9 8 8 8 8 8 6 6 7 7 7 6 6 6 5 5 5 5 4 4 5 3 2 6 7 5 8 11 6 6 5 6 12 18 16 19 18 16 8 8 8 8 9 9 9 9 9 9 9 9 9 9 9 9 9 9 9 9 8 8 9 8 8 8 9 9 9 8 8 9 9
5 4 3 3 4 4 4 4 4 4 5 5 7 9 10 8 8 7 6 7 8 8 7 7 7 8 7 6 5 5 5 6 7 6 5 4 5 6 8 9 6 6 11 11 4 6 5 12 15 16 17 17 17 9 7 7 7 7 8 8 8 9 9 8 9 9 9 9 9 9 9 9 9 8 9 8 8 8 8 9 8 9 9 9 9 9 9
3 4 4 4 5 5 4 4 3 4 5 4 6 8 8 5 4 4 5 7 8 8 8 8 9 8 6 5 4 4 5 6 5 3 2 2 4 8 10 9 7 8 9 6 6 5 6 9 11 15 15 16 13 6 6 7 7 7 7 7 7 7 8 8 9 8 8 8 8 8 9 9 8 8 9 9 9 9 8 9 8 8 8 8 8 9 9
3 4 6 4 6 7 4 3 2 4 4 8 7 6 7 7 7 6 6 6 7 7 7 6 5 5 5 4 3 3 4 3 4 3 2 2 4 6 5 3 5 9 9 6 6 6 10 12 13 14 14 13 7 6 7 7 7 7 7 7 7 7 7 7 7 8 8 8 9 8 8 8 8 8 8 8 8 9 8 8 8 8 8 7 7 7 7
3 5 6 6 5 6 4 3 3 4 4 5 3 6 7 7 7 7 7 8 8 6 5 5 5 4 3 2 3 4 3 4 5 5 2 4 6 6 5 5 6 7 6 4 5 4 7 11 11 12 12 9 5 6 6 6 6 7 6 7 7 7 7 7 7 7 6 7 7 7 7 8 8 8 8 8 8 8 9 9 9 8 7 6 7 7 7
3 2 3 2 2 3 3 2 2 4 5 4 5 5 5 4 4 5 4 3 3 3 3 3 2 2 1 2 3 3 3 3 4 5 6 6 5 5 5 4 4 6 6 5 5 5 5 8 8 8 8 6 5 5 6 6 6 6 6 6 7 6 6 7 7 8 7 6 6 6 6 6 6 6 7 7 7 7 7 7 6 8 12 8 7 6 6
1 2 2 4 3 4 5 5 6 6 4 5 5 6 5 4 4 4 3 3 3 2 2 2 1 1 2 3 3 3 2 2 3 4 4 4 4 4 3 4 4 4 5 5 4 4 4 5 5 6 7 6 6 6 6 7 6 6 7 7 7 7 7 7 6 7 7 7 6 6 6 5 5 5 5 5 5 5 6 6 6 6 6 6 5 5 5
3 3 4 3 3 4 5 6 6 5 5 5 5 4 4 4 4 3 3 3 2 2 2 2 2 2 2 2 2 2 2 2 2 3 3 3 3 2 2 4 3 3 3 3 4 4 4 4 5 5 6 5 5 5 6 7 6 6 6 6 6 6 6 6 6 6 6 6 6 6 6 6 5 5 5 5 5 4 5 4 4 4 4 4 4 4 4
Wind_Direction
258 264 272 279 284 275 273 270 272 272 273 271 263 263 273 276 261 275 290 288 284 281 280 282 286 336 84 106 123 101 5 225 250 297 326 338 342 340 330 323 329 327 326 329 323 324 322 324 326 327 329 331 333 333 330 333 333 331 332 326 322 321 321 320 324 323 323 323 327 328 325 324 329 333 334 332 327 324 322 321 318 313 308 301 290 275 261
271 275 274 277 274 277 270 263 266 268 267 265 269 275 275 266 266 270 273 274 273 275 280 340 75 78 102 91 136 191 223 259 244 269 284 294 312 309 314 307 309 305 304 304 308 306 308 311 316 316 318 322 325 325 325 329 334 333 335 328 323 324 321 322 323 322 321 319 320 323 322 325 328 328 325 325 328 329 328 324 321 314 304 293 288 286 279
252 242 252 252 251 263 267 266 264 261 259 263 267 270 267 268 263 262 264 264 266 275 80 98 95 89 95 131 214 249 274 254 256 260 272 284 291 304 298 294 291 296 296 300 300 302 304 309 305 309 305 309 313 311 313 319 320 325 325 320 321 322 321 322 322 322 322 321 319 316 313 312 315 323 325 324 321 320 319 321 318 312 311 302 297 291 284
272 272 280 282 293 289 280 277 267 261 260 266 252 253 248 251 254 256 261 261 266 95 97 106 118 81 76 263 297 290 271 266 252 254 259 267 278 295 300 295 293 297 301 302 306 306 306 304 304 304 306 304 305 306 308 311 315 318 318 313 313 313 315 319 320 322 323 324 324 320 318 315 315 311 310 309 314 314 316 316 317 314 308 299 294 290 282
252 258 269 294 338 298 275 243 247 253 252 241 251 250 255 253 262 269 258 267 359 134 136 140 165 150 323 263 280 272 269 255 247 249 251 255 263 282 304 303 298 296 296 297 296 299 299 301 303 302 302 299 295 300 301 303 311 309 309 310 307 308 309 313 315 317 321 324 324 322 319 316 317 317 313 312 311 317 314 311 307 309 308 308 302 298 289
267 279 304 67 278 262 250 293 240 225 250 258 265 259 255 265 243 273 339 3 133 134 114 120 271 330 284 290 271 256 266 277 260 248 245 246 257 284 287 288 289 290 291 289 288 287 288 289 292 295 290 284 282 282 283 289 296 299 302 303 303 303 304 304 306 310 313 317 317 317 316 315 318 320 321 318 319 317 311 308 304 300 301 299 298 298 293
267 259 76 271 238 244 334 67 321 351 338 262 254 267 269 262 146 187 208 157 165 180 123 243 264 273 275 271 281 280 265 262 270 271 267 259 267 290 298 301 306 300 292 287 283 283 283 287 289 288 286 284 286 281 270 272 277 287 291 292 293 294 295 298 300 304 307 311 314 315 314 312 312 315 314 315 316 316 312 307 303 300 299 299 294 293 289
311 206 225 246 250 81 297 290 214 156 265 253 271 274 258 205 203 202 219 202 167 194 240 268 251 257 272 277 270 267 273 272 270 274 269 264 264 280 289 294 293 296 295 295 294 290 288 284 282 282 284 289 287 285 281 273 278 278 281 284 286 291 290 290 293 297 303 306 308 310 310 308 309 312 313 310 312 313 308 300 291 290 290 288 288 290 288
242 239 238 239 314 314 289 280 253 166 247 213 205 269 297 163 201 189 199 186 178 215 239 247 257 247 268 277 267 246 239 258 257 255 259 259 257 263 270 272 274 276 281 280 283 283 283 283 284 283 284 285 283 281 278 273 277 280 281 279 282 285 285 286 290 291 295 300 303 305 305 302 304 308 312 312 309 311 301 297 295 291 284 283 285 285 284
225 239 259 274 265 254 278 132 275 169 274 46 321 84 283 139 172 152 174 188 221 245 260 258 229 153 248 272 275 272 219 238 262 263 257 255 257 259 265 270 272 272 272 275 275 281 291 294 292 295 294 296 292 285 281 283 283 282 281 279 280 278 277 281 281 286 294 298 299 300 300 297 301 304 304 301 297 298 296 294 291 286 288 288 281 273 276
253 241 236 243 251 256 98 242 197 220 130 150 239 151 280 136 171 210 161 244 243 240 262 263 163 211 258 267 282 296 300 259 266 268 259 253 249 252 256 264 271 277 283 290 294 294 292 290 298 308 311 304 290 282 282 283 280 277 278 280 281 281 282 284 284 284 288 290 292 291 288 290 297 298 298 297 294 296 291 289 286 289 287 284 285 280 275
230 243 247 251 253 260 258 219 237 182 117 165 230 294 303 99 225 194 186 224 249 258 249 255 248 245 269 278 294 308 303 301 288 286 282 269 258 253 259 261 270 296 307 302 294 292 293 297 309 313 313 303 292 287 284 283 276 272 278 281 283 287 286 285 284 284 286 287 284 282 284 290 292 288 289 291 289 291 291 290 289 287 285 280 282 281 277
234 235 249 260 263 251 246 243 220 126 177 175 255 257 285 179 214 206 201 229 242 254 262 243 246 232 252 279 292 297 298 295 279 269 268 270 270 274 282 305 347 321 310 304 301 302 300 302 304 304 304 297 291 291 289 288 280 286 292 292 293 287 285 283 281 279 280 279 280 277 280 286 289 286 283 284 286 285 288 288 284 283 282 281 278 276 271
233 236 248 247 268 253 251 250 116 138 129 219 251 282 131 196 217 223 212 230 243 250 251 257 259 272 278 284 285 286 287 285 288 287 283 281 279 282 306 319 322 321 313 303 299 297 298 302 307 307 301 293 291 294 293 286 290 301 298 301 297 290 282 277 274 272 274 274 272 275 280 281 282 280 278 277 277 280 281 281 283 283 280 277 273 269 270
243 244 254 262 265 101 173 135 75 193 211 266 82 239 211 189 239 242 224 225 246 248 262 256 263 271 274 275 277 278 277 279 283 290 297 307 314 319 325 323 326 326 311 305 302 301 304 308 316 322 319 306 299 296 290 293 304 303 305 302 295 289 282 281 280 281 281 277 275 270 274 275 276 276 280 280 277 277 276 275 272 275 274 273 269 266 264
249 231 216 218 247 264 153 177 221 185 220 331 315 324 306 303 288 256 277 256 249 250 256 271 274 270 274 275 273 275 280 287 299 317 336 335 326 319 314 314 317 324 306 303 304 306 310 313 318 322 319 308 304 301 297 307 305 302 302 300 294 287 283 283 288 285 284 283 280 274 274 278 276 275 276 277 276 275 276 275 275 272 270 269 267 263 261
186 239 259 178 203 205 172 211 250 282 274 256 257 263 266 279 287 264 265 282 284 261 253 261 267 274 269 273 281 290 298 310 322 331 325 320 312 310 311 315 321 324 320 317 314 310 310 314 319 321 319 312 307 303 306 313 310 312 310 306 299 291 290 290 288 288 290 286 283 279 273 276 278 278 275 273 275 271 270 271 268 267 266 266 264 263 261
252 269 260 260 256 253 248 222 227 257 266 273 275 265 272 253 262 270 276 286 283 282 264 258 266 261 272 286 295 303 305 307 311 316 312 308 308 309 315 322 338 335 326 318 312 309 308 314 322 319 317 317 311 307 312 311 310 309 306 303 297 292 291 289 289 291 292 290 285 280 279 280 275 274 272 271 269 271 267 263 263 262 264 264 262 261 260
273 265 256 229 249 264 261 263 248 226 229 255 267 262 253 268 278 277 253 255 268 276 291 260 266 276 299 309 301 298 298 301 308 310 304 302 309 319 324 329 342 331 332 321 316 316 310 315 324 319 316 312 307 307 306 307 307 306 302 298 295 293 291 292 293 291 289 288 289 287 282 278 272 269 269 267 264 264 262 263 264 264 264 263 264 262 260
238 256 262 264 259 252 257 263 269 265 259 248 244 244 259 274 284 290 273 182 246 258 261 268 277 286 310 304 296 297 297 299 302 300 301 310 315 319 326 324 336 328 324 319 313 314 309 312 316 314 312 308 308 307 304 304 305 304 299 296 295 293 293 293 291 292 289 287 286 284 282 278 276 272 266 263 263 260 259 258 261 264 263 263 262 263 265
242 252 258 262 266 269 266 252 241 245 255 264 265 263 252 241 233 131 108 85 113 125 256 273 284 290 290 285 291 290 294 295 298 305 312 316 316 320 325 327 339 329 323 317 310 306 302 307 308 305 300 299 300 302 302 300 298 297 294 295 292 290 290 290 287 288 285 284 283 283 281 278 271 266 265 266 262 262 254 252 253 258 260 260 258 260 265
249 245 249 237 250 267 263 246 233 240 244 252 259 222 183 194 202 166 174 155 123 139 141 268 285 277 285 284 288 286 288 295 307 313 317 318 319 320 324 322 322 319 315 310 306 304 300 302 302 301 298 298 298 292 293 291 290 291 292 292 291 290 290 289 289 289 287 284 284 283 281 280 280 276 265 262 262 261 264 257 253 253 253 256 257 261 262
248 248 243 229 235 257 264 275 248 169 166 200 232 239 198 163 157 153 192 200 182 200 189 306 274 275 284 296 300 291 294 303 310 314 322 322 321 320 324 321 317 316 311 308 301 296 294 295 294 293 290 289 289 289 291 292 291 285 287 290 292 291 291 290 290 290 288 287 285 283 282 281 281 281 284 274 266 268 267 266 262 259 259 260 261 260 261
250 256 262 249 226 243 260 271 134 158 168 204 220 150 120 147 151 145 159 189 214 243 243 240 260 297 301 302 303 295 301 308 317 318 321 317 310 310 313 315 312 310 306 303 296 292 294 295 290 292 288 284 285 288 291 293 289 287 287 289 292 292 291 290 289 287 285 283 284 283 283 280 280 282 283 286 282 269 271 284 292 294 293 290 286 284 281
248 250 252 254 256 259 265 47 103 135 128 212 190 166 154 145 133 124 186 223 237 241 264 268 289 322 310 306 308 306 310 314 317 316 315 310 307 311 311 306 299 296 296 294 292 290 290 290 288 286 283 287 292 293 295 296 294 293 291 290 291 291 290 289 288 287 285 285 284 283 282 280 280 279 280 283 285 289 282 279 279 277 276 276 277 278 277
243 252 258 265 285 250 123 93 188 170 151 142 129 128 118 107 107 140 222 267 269 289 280 294 306 322 343 324 315 315 310 305 316 316 309 311 311 307 299 296 296 294 292 291 288 287 285 283 286 292 290 294 299 299 299 297 296 295 293 291 291 291 291 290 289 287 285 283 281 281 279 279 279 279 278 278 280 282 288 290 281 275 271 270 269 268 265
239 246 260 272 267 255 168 210 238 133 138 121 124 125 117 110 115 220 314 278 275 292 313 336 322 335 337 315 307 307 306 307 311 307 307 305 300 295 294 294 291 290 289 287 287 284 287 291 293 296 293 298 300 299 298 297 295 294 294 294 293 289 288 287 286 285 285 283 281 280 280 279 279 278 278 278 279 281 282 284 284 283 286 282 280 282 283
245 201 179 232 247 263 161 93 91 125 119 135 131 128 105 90 105 125 198 191 182 182 299 280 315 336 316 322 323 309 307 304 307 306 305 298 294 291 287 289 292 292 289 283 283 290 295 296 296 298 295 298 299 298 295 296 296 294 294 293 291 290 290 287 284 283 281 281 279 279 278 277 277 276 277 277 277 278 279 278 279 281 284 282 280 278 279
203 153 354 338 25 78 98 114 118 129 134 114 112 98 102 89 160 185 204 201 265 290 265 256 339 321 316 312 315 304 303 303 301 301 303 301 295 292 291 290 289 288 285 286 287 291 298 299 298 296 295 298 301 300 300 299 295 292 293 293 293 290 288 287 285 281 280 279 277 274 274 275 275 274 273 272 272 273 273 275 275 275 275 280 279 275 269
122 105 92 109 102 124 133 168 170 154 144 150 135 134 127 130 204 226 265 255 255 274 283 334 324 314 312 303 300 305 305 301 299 301 301 298 294 292 290 291 285 282 290 292 295 304 303 302 298 294 295 300 302 306 304 300 294 291 285 279 279 280 280 280 279 279 278 277 277 277 276 274 273 273 275 275 274 269 267 269 274 277 277 279 290 303 303
99 81 100 115 127 156 198 183 145 155 147 135 143 159 180 176 209 236 233 281 298 300 329 322 308 300 297 295 298 294 291 290 291 293 289 284 286 283 286 294 304 312 310 307 304 301 299 295 291 291 298 306 309 309 306 304 300 296 294 290 287 284 282 282 283 282 280 279 278 277 276 276 274 275 276 277 277 279 281 284 285 281 278 278 276 275 280
100 80 84 160 163 202 196 175 166 180 170 140 157 228 211 261 253 258 273 267 287 310 305 297 287 289 293 291 288 290 291 289 288 286 284 277 274 279 284 293 295 292 291 293 294 294 294 295 299 306 312 313 313 313 310 307 306 301 298 296 292 293 290 286 286 283 279 274 273 272 271 271 271 270 272 271 272 275 276 275 275 275 277 275 270 266 267
115 140 262 223 243 270 246 213 189 193 170 195 213 205 259 245 256 264 274 296 307 296 292 286 290 288 291 290 295 295 291 289 281 270 266 282 293 298 299 308 304 296 293 290 285 287 284 300 309 311 310 314 315 315 315 311 309 305 303 298 295 292 290 287 282 283 280 275 271 268 269 266 269 269 269 269 272 274 275 272 269 273 275 276 273 269 263
195 218 249 130 180 203 213 218 188 160 200 221 225 229 244 257 260 273 282 287 281 286 280 284 289 286 287 298 294 289 287 292 301 305 304 295 295 302 308 308 301 294 284 284 282 287 314 318 312 314 317 318 318 319 317 316 313 310 303 300 295 293 293 293 290 285 279 276 272 266 263 263 263 264 267 269 271 271 274 275 279 280 280 280 283 284 283
83 84 90 82 63 68 43 85 136 171 202 243 247 236 248 255 253 261 267 279 275 283 291 294 293 293 297 288 288 281 279 279 286 292 292 296 302 309 307 304 295 291 285 280 290 303 317 313 312 319 325 323 319 319 318 316 313 308 307 304 304 302 302 300 300 295 290 285 284 279 272 265 264 262 263 267 268 270 271 271 273 273 275 275 271 268 271
84 81 78 76 73 69 95 110 165 192 212 226 250 255 260 248 257 270 272 273 284 290 291 292 293 291 283 279 278 282 281 285 284 282 287 298 307 310 308 304 306 299 301 305 306 320 317 311 323 335 333 324 322 320 320 321 317 318 314 313 310 309 305 304 304 304 305 303 297 284 276 273 266 265 264 264 267 267 269 270 269 270 272 271 268 267 268
70 95 105 86 80 98 117 207 216 211 235 252 267 273 276 282 272 269 269 275 281 282 284 285 279 267 267 269 274 276 275 277 284 292 297 302 308 308 303 296 293 298 309 305 324 331 325 328 337 337 332 322 322 321 322 324 326 324 319 317 315 313 312 312 317 318 318 319 320 319 306 287 282 277 269 264 264 264 265 266 268 270 270 273 285 300 315
110 118 117 125 208 181 250 242 237 221 257 269 261 248 253 263 266 268 263 264 265 269 273 275 268 264 269 275 275 274 279 281 280 287 295 301 305 302 300 298 303 309 318 316 321 324 328 333 335 335 328 326 325 323 322 327 331 328 322 321 318 317 317 320 322 324 327 329 330 331 336 334 319 308 301 290 282 279 279 282 286 289 302 336 354 0 8
113 86 53 44 38 280 274 281 271 240 226 240 256 263 254 255 259 267 261 257 261 259 262 259 262 266 269 275 280 284 284 282 287 295 301 305 303 297 289 293 283 283 294 308 314 321 327 333 334 326 324 325 325 321 327 332 335 331 326 322 321 321 326 326 326 325 330 333 335 340 342 344 347 346 346 346 349 352 356 357 352 356 359 357 2 11 14
114 70 303 264 247 247 246 254 241 240 237 231 244 267 277 272 263 258 262 267 268 262 261 265 269 270 277 276 281 283 285 288 294 301 302 305 305 297 288 282 257 283 306 316 318 323 329 332 332 327 325 325 327 329 332 334 337 333 329 327 327 328 328 330 331 336 337 340 342 344 347 347 350 350 350 351 351 355 0 1 7 9 10 13 11 13 17
165 212 221 222 243 241 237 250 258 255 252 257 256 260 254 257 259 265 267 266 270 264 258 251 259 261 262 267 271 276 281 288 295 299 301 303 298 296 310 300 322 330 319 323 323 329 332 336 335 332 331 332 329 336 334 335 337 333 331 330 332 334 334 337 341 341 342 342 345 346 349 351 349 350 355 357 1 0 359 3 5 12 16 19 19 19 27
221 211 236 246 248 248 245 248 265 285 279 266 262 258 261 255 249 256 262 264 268 267 265 264 250 255 261 266 268 274 279 287 292 294 290 280 281 294 297 281 321 313 320 322 326 329 335 337 333 331 337 336 333 336 336 332 333 333 335 335 335 338 339 341 343 343 342 344 344 345 349 351 353 354 354 357 1 3 1 4 6 9 15 19 25 26 29
207 219 229 234 241 249 250 254 253 266 271 272 271 273 271 269 262 264 261 259 258 263 265 263 267 269 269 270 271 275 281 286 287 285 278 263 262 244 245 278 303 308 325 332 334 338 340 335 334 338 339 341 337 337 337 339 339 340 340 342 339 342 345 345 343 342 347 351 352 353 353 352 355 357 357 360 0 1 5 9 12 12 14 17 20 28 36
237 243 239 243 253 265 268 275 277 289 290 286 281 274 272 268 260 256 261 261 265 259 254 262 265 264 262 256 254 269 282 293 295 299 301 301 304 270 217 270 304 306 328 347 341 339 332 334 332 338 337 342 343 344 340 340 347 346 344 340 341 342 346 348 348 349 354 354 354 354 353 353 354 355 357 360 2 6 8 9 11 15 22 24 27 29 31
236 241 247 251 256 265 275 272 278 280 282 293 295 288 278 270 267 255 246 250 253 259 254 251 250 257 256 253 254 263 274 284 280 287 290 302 305 283 194 312 311 315 337 344 335 332 331 332 336 340 344 345 346 344 343 346 346 352 352 347 346 345 348 348 351 353 355 356 357 355 357 357 356 357 358 0 2 10 12 14 18 19 24 27 27 32 29
235 230 246 284 293 278 266 271 281 296 290 291 293 285 273 259 260 265 244 240 246 249 244 245 249 256 256 257 259 272 277 280 270 252 236 234 252 282 310 304 311 327 337 340 335 333 324 331 338 345 345 348 345 344 345 343 347 348 349 349 355 354 353 348 351 354 357 358 360 3 4 1 1 3 4 5 5 11 14 17 27 29 33 35 35 39 45
291 312 303 281 279 276 281 283 290 281 284 291 272 270 282 278 254 246 259 248 239 249 251 249 247 252 255 252 257 281 292 293 288 251 219 228 258 274 282 297 312 333 345 342 336 331 332 336 339 342 346 346 341 342 343 348 346 348 347 348 349 351 356 358 357 354 354 352 350 353 357 2 4 2 1 4 8 12 13 19 26 26 34 42 52 50 49
288 285 285 272 273 284 302 301 307 286 269 256 256 272 275 284 284 278 271 267 260 251 248 246 247 247 245 239 228 236 243 260 288 292 156 233 283 292 303 322 334 338 335 325 320 309 321 337 342 345 345 343 342 348 347 351 348 347 349 350 351 350 352 354 358 1 355 357 0 3 4 2 1 4 5 9 10 11 14 16 22 33 38 34 32 34 37
244 255 273 279 278 282 288 285 277 263 262 266 255 258 268 271 276 274 272 263 255 253 252 251 248 244 234 209 249 251 237 220 231 260 304 312 307 307 314 322 327 339 337 323 315 312 323 337 342 346 345 342 349 344 344 346 344 346 349 350 346 349 351 353 354 350 352 357 358 6 13 12 10 9 9 14 14 18 22 29 30 25 15 23 34 31 37
277 275 275 279 282 285 272 267 271 264 275 281 268 270 271 266 271 274 268 259 260 273 272 260 249 240 248 268 256 256 252 250 261 271 278 283 292 295 302 317 326 330 327 320 315 313 317 325 338 347 350 352 349 347 350 347 345 351 347 343 348 346 344 340 337 349 354 356 359 6 4 7 6 3 10 25 20 18 24 28 26 15 11 22 26 25 25
294 281 270 277 274 272 261 242 248 270 276 271 263 267 270 270 273 283 284 283 274 277 275 297 308 261 247 260 267 264 269 281 280 279 283 290 285 291 317 326 325 320 322 317 314 319 323 338 347 343 344 345 345 351 354 349 345 348 352 353 348 352 347 352 357 352 355 356 353 359 358 358 358 4 16 17 13 16 13 15 18 20 22 22 23 28 23
260 252 263 268 269 273 281 276 260 238 244 259 275 288 285 280 281 286 285 285 281 279 309 315 294 249 232 265 277 291 327 308 290 284 273 274 295 300 328 329 315 306 308 311 313 309 320 323 327 334 334 337 341 337 334 340 345 344 341 342 342 347 349 345 349 355 355 352 353 353 356 359 353 358 5 2 4 5 7 8 11 11 10 12 11 11 17